Olbia, Italy

2:10 AM CET on March 24, 2017 (GMT +0100)
Costa Smeralda

Weather History for LIEO - October, 2011

Change the Weather History Date:

Tuesday, October 25, 2011

  Actual Average Record
Temperature  
Mean Temperature 67 °F -  
Max Temperature 79 °F 64 °F 78 °F (1999)
Min Temperature 55 °F 47 °F 44 °F (1996)
Cooling Degree Days 2    
Growing Degree Days 17 (Base 50)    
Moisture  
Dew Point 58 °F    
Average Humidity 76    
Maximum Humidity 94    
Minimum Humidity 42    
Precipitation  
Precipitation 0.16 in 0.07 in - ()
Sea Level Pressure  
Sea Level Pressure 29.81 in    
Wind  
Wind Speed 3 mph ()    
Max Wind Speed 10 mph    
Max Gust Speed -    
Visibility 6.6 miles    
Events Rain    
Averages and records for this station are not official NWS values.
T = Trace of Precipitation, MM = Missing Value Source: Averaged Metar Reports

Daily Weather History Graph

Daily Weather History Graph

Search for Another Location

Airport or City:

Trip Planner

Search our weather history database for the weather conditions in past years. The results will help you decide how hot, cold, wet, or windy it might be!

Date:

Astronomy

Oct. 25, 2011 Rise Set
Actual Time 7:43 AM CEST 6:27 PM CEST
Civil Twilight 7:15 AM CEST 6:55 PM CEST
Nautical Twilight 6:43 AM CEST 7:27 PM CEST
Astronomical Twilight 6:11 AM CEST 7:59 PM CEST
Moon 5:55 AM CEST (10/25) 5:18 PM CEST (10/25)
Length of Visible Light 11h 39m
Length of Day
10h 43m
Waning Crescent, 3% of the Moon is Illuminated
Oct 25
Waning Crescent
Oct 26
New
Nov 2
First Quarter
Nov 10
Full
Nov 18
Last Quarter

Hourly Weather History & Observations

Time (CEST) Temp. Dew Point Humidity Pressure Visibility Wind Dir Wind Speed Gust Speed Precip Events Conditions
12:20 AM 64.4 °F 59.0 °F 83% 29.83 in 6.2 mi East 3.5 mph - N/A   Scattered Clouds
12:50 AM 64.4 °F 60.8 °F 88% 29.83 in 6.2 mi Variable 3.5 mph - N/A   Scattered Clouds
1:20 AM 64.4 °F 59.0 °F 83% 29.83 in 6.2 mi Variable 2.3 mph - N/A   Scattered Clouds
1:50 AM 64.4 °F 59.0 °F 83% 29.83 in 6.2 mi ESE 5.8 mph - N/A   Scattered Clouds
2:00 AM 65 °F 58 °F 73% 29.80 in 5 mi ESE 6.9 mph - - Rain Light Rain
2:20 AM 64.4 °F 57.2 °F 77% 29.80 in 6.2 mi SSW 3.5 mph - N/A   Scattered Clouds
2:50 AM 62.6 °F 57.2 °F 82% 29.83 in 6.2 mi SSE 3.5 mph - N/A   Scattered Clouds
3:20 AM 60.8 °F 57.2 °F 88% 29.80 in 6.2 mi SW 2.3 mph - N/A   Scattered Clouds
3:50 AM 59.0 °F 55.4 °F 88% 29.80 in 6.2 mi Variable 2.3 mph - N/A   Scattered Clouds
4:20 AM 59.0 °F 57.2 °F 94% 29.80 in 6.2 mi SW 4.6 mph - N/A   Scattered Clouds
4:50 AM 57.2 °F 55.4 °F 94% 29.80 in 6.2 mi Calm Calm - N/A   Scattered Clouds
5:00 AM 58 °F 56 °F 90% 29.80 in 5 mi SSW 2.3 mph - - Rain Light Rain
5:20 AM 57.2 °F 55.4 °F 94% 29.80 in 6.2 mi Variable 1.2 mph - N/A   Scattered Clouds
5:50 AM 57.2 °F 55.4 °F 94% 29.77 in 5.0 mi SW 2.3 mph - N/A   Partly Cloudy
6:20 AM 57.2 °F 55.4 °F 94% 29.80 in 5.0 mi SW 3.5 mph - N/A   Partly Cloudy
6:50 AM 57.2 °F 55.4 °F 94% 29.77 in 5.0 mi Variable 2.3 mph - N/A   Partly Cloudy
7:20 AM 57.2 °F 55.4 °F 94% 29.77 in 6.2 mi Variable 1.2 mph - N/A   Partly Cloudy
7:50 AM 57.2 °F 55.4 °F 94% 29.77 in 6.2 mi SW 2.3 mph - N/A   Partly Cloudy
8:00 AM 57 °F 56 °F 94% 29.77 in 9 mi SW 2.3 mph - -   Scattered Clouds
8:20 AM 57.2 °F 55.4 °F 94% 29.77 in 6.2 mi SW 3.5 mph - N/A   Partly Cloudy
8:50 AM 59.0 °F 57.2 °F 94% 29.77 in 6.2 mi Variable 2.3 mph - N/A   Partly Cloudy
9:20 AM 60.8 °F 59.0 °F 94% 29.80 in 6.2 mi Variable 2.3 mph - N/A   Partly Cloudy
9:50 AM 64.4 °F 60.8 °F 88% 29.80 in 6.2 mi WSW 3.5 mph - N/A   Partly Cloudy
10:20 AM 69.8 °F 62.6 °F 78% 29.80 in 6.2 mi South 3.5 mph - N/A   Partly Cloudy
10:50 AM 75.2 °F 60.8 °F 61% 29.80 in 6.2 mi South 4.6 mph - N/A   Partly Cloudy
11:00 AM 75 °F 59 °F 48% 29.80 in 9 mi SE 4.6 mph - -   Scattered Clouds
11:20 AM 75.2 °F 59.0 °F 57% 29.80 in 6.2 mi SSE 4.6 mph - N/A   Partly Cloudy
11:50 AM 77.0 °F 57.2 °F 50% 29.80 in 6.2 mi Variable 4.6 mph - N/A   Partly Cloudy
12:20 PM 77.0 °F 57.2 °F 50% 29.80 in 6.2 mi Variable 6.9 mph - N/A   Partly Cloudy
12:50 PM 78.8 °F 57.2 °F 47% 29.80 in - SE 6.9 mph - N/A   Clear
1:20 PM 78.8 °F 57.2 °F 47% 29.80 in - SE 6.9 mph - N/A   Clear
1:50 PM 77.0 °F 57.2 °F 50% 29.80 in 6.2 mi Variable 5.8 mph - N/A   Partly Cloudy
2:00 PM 76 °F 57 °F 42% 29.80 in 16 mi ESE 6.9 mph - -   Scattered Clouds
2:20 PM 75.2 °F 57.2 °F 53% 29.80 in 6.2 mi Variable 5.8 mph - N/A   Partly Cloudy
2:50 PM 73.4 °F 59.0 °F 61% 29.80 in 6.2 mi East 8.1 mph - N/A   Partly Cloudy
3:20 PM 73.4 °F 59.0 °F 61% 29.77 in 6.2 mi East 10.4 mph - N/A   Scattered Clouds
3:50 PM 71.6 °F 59.0 °F 64% 29.77 in 6.2 mi East 9.2 mph - N/A   Scattered Clouds
4:20 PM 71.6 °F 59.0 °F 64% 29.77 in 6.2 mi East 3.5 mph - N/A   Scattered Clouds
4:50 PM 73.4 °F 59.0 °F 61% 29.80 in 6.2 mi Variable 2.3 mph - N/A   Scattered Clouds
5:00 PM 72 °F 59 °F 54% 29.80 in 12 mi East 2.3 mph - -   Partly Cloudy
5:20 PM 71.6 °F 59.0 °F 64% 29.80 in 6.2 mi Variable 2.3 mph - N/A   Scattered Clouds
5:50 PM 71.6 °F 59.0 °F 64% 29.80 in 6.2 mi East 4.6 mph - N/A   Scattered Clouds
6:20 PM 69.8 °F 59.0 °F 68% 29.80 in 6.2 mi Variable 1.2 mph - N/A   Scattered Clouds
6:50 PM 69.8 °F 59.0 °F 68% 29.83 in 6.2 mi Variable 2.3 mph - N/A   Scattered Clouds
7:20 PM 69.8 °F 59.0 °F 68% 29.83 in 6.2 mi Calm Calm - N/A   Scattered Clouds
7:50 PM 68.0 °F 59.0 °F 73% 29.83 in 6.2 mi East 4.6 mph - N/A   Light Drizzle
8:00 PM 68 °F 59 °F 67% 29.86 in 12 mi SE 3.5 mph - - Rain Light Drizzle
8:20 PM 68.0 °F 60.8 °F 78% 29.86 in 6.2 mi WNW 3.5 mph - N/A   Light Drizzle
8:50 PM 66.2 °F 60.8 °F 83% 29.86 in 6.2 mi Variable 2.3 mph - N/A   Light Drizzle
9:20 PM 66.2 °F 60.8 °F 83% 29.86 in 6.2 mi Variable 3.5 mph - N/A   Scattered Clouds
9:50 PM 66.2 °F 62.6 °F 88% 29.86 in 6.2 mi WSW 2.3 mph - N/A   Scattered Clouds
10:20 PM 64.4 °F 60.8 °F 88% 29.86 in - WSW 3.5 mph - N/A   Clear
10:50 PM 64.4 °F 62.6 °F 94% 29.89 in 6.2 mi SW 3.5 mph - N/A   Light Drizzle
11:00 PM 65 °F 62 °F 86% 29.89 in 7 mi WSW 3.5 mph - - Rain Light Drizzle
11:20 PM 64.4 °F 60.8 °F 88% 29.89 in - SW 5.8 mph - N/A   Clear
11:50 PM 64.4 °F 60.8 °F 88% 29.92 in 6.2 mi SSW 4.6 mph - N/A Rain Rain